Time,TemperatureF,DewpointF,PressureIn,WindDirection,WindDirectionDegrees,WindSpeedMPH,WindSpeedGustMPH,Humidity,HourlyPrecipIn,Conditions,Clouds,dailyrainin,SolarRadiationWatts/m^2,SoftwareType,DateUTC
2013-08-23 00:00:00,67.0,64.0,-100.00,NW,315,4.0,-999.0,89,-99.99,,,-99.99,0.000000,,2013-08-23 04:00:00,
2013-08-23 00:43:00,67.0,64.0,-100.00,NW,315,4.0,-999.0,89,-99.99,,,-99.99,0.000000,,2013-08-23 04:43:00,
2013-08-23 00:54:00,67.0,64.0,-100.00,NW,315,4.0,-999.0,89,-99.99,,,-99.99,0.000000,,2013-08-23 04:54:00,
2013-08-23 01:00:00,66.0,63.0,-100.00,NW,315,2.0,-999.0,91,-99.99,,,-99.99,0.000000,,2013-08-23 05:00:00,
2013-08-23 01:42:00,66.0,63.0,-100.00,NW,315,2.0,-999.0,91,-99.99,,,-99.99,0.000000,,2013-08-23 05:42:00,
2013-08-23 01:53:00,66.0,63.0,-100.00,NW,315,2.0,-999.0,91,-99.99,,,-99.99,0.000000,,2013-08-23 05:53:00,
2013-08-23 02:00:00,65.0,63.0,-100.00,NW,315,1.0,-999.0,92,-99.99,,,-99.99,0.000000,,2013-08-23 06:00:00,
2013-08-23 02:42:00,65.0,63.0,-100.00,NW,315,1.0,-999.0,92,-99.99,,,-99.99,0.000000,,2013-08-23 06:42:00,
2013-08-23 02:52:00,65.0,63.0,-100.00,NW,315,1.0,-999.0,92,-99.99,,,-99.99,0.000000,,2013-08-23 06:52:00,
2013-08-23 03:00:00,66.0,64.0,-100.00,NNE,22,3.0,-999.0,92,-99.99,,,-99.99,0.000000,,2013-08-23 07:00:00,
2013-08-23 03:42:00,66.0,64.0,-100.00,NNE,22,3.0,-999.0,92,-99.99,,,-99.99,0.000000,,2013-08-23 07:42:00,
2013-08-23 03:53:00,66.0,64.0,-100.00,NNE,22,3.0,-999.0,92,-99.99,,,-99.99,0.000000,,2013-08-23 07:53:00,
2013-08-23 04:00:00,66.0,64.0,-100.00,NNE,22,3.0,-999.0,92,-99.99,,,-99.99,0.000000,,2013-08-23 08:00:00,
2013-08-23 04:42:00,66.0,64.0,-100.00,NNE,22,3.0,-999.0,92,-99.99,,,-99.99,0.000000,,2013-08-23 08:42:00,
2013-08-23 04:52:00,66.0,64.0,-100.00,NNE,22,3.0,-999.0,92,-99.99,,,-99.99,0.000000,,2013-08-23 08:52:00,
2013-08-23 05:00:00,64.0,62.0,-100.00,NE,45,1.0,-999.0,92,-99.99,,,-99.99,0.000000,,2013-08-23 09:00:00,
2013-08-23 05:43:00,64.0,62.0,-100.00,NE,45,1.0,-999.0,92,-99.99,,,-99.99,0.000000,,2013-08-23 09:43:00,
2013-08-23 05:53:00,64.0,62.0,-100.00,NE,45,1.0,-999.0,92,-99.99,,,-99.99,0.000000,,2013-08-23 09:53:00,
2013-08-23 06:00:00,64.0,62.0,-100.00,NNE,22,2.0,-999.0,93,-99.99,,,-99.99,0.000000,,2013-08-23 10:00:00,
2013-08-23 06:42:00,64.0,62.0,-100.00,NNE,22,2.0,-999.0,93,-99.99,,,-99.99,0.000000,,2013-08-23 10:42:00,
2013-08-23 06:53:00,64.0,62.0,-100.00,NNE,22,2.0,-999.0,93,-99.99,,,-99.99,0.000000,,2013-08-23 10:53:00,
2013-08-23 07:00:00,62.0,60.0,-100.00,NE,45,2.0,-999.0,93,-99.99,,,-99.99,0.000000,,2013-08-23 11:00:00,
2013-08-23 07:42:00,62.0,60.0,-100.00,NE,45,2.0,-999.0,93,-99.99,,,-99.99,0.000000,,2013-08-23 11:42:00,
2013-08-23 07:53:00,62.0,60.0,-100.00,NE,45,2.0,-999.0,93,-99.99,,,-99.99,0.000000,,2013-08-23 11:53:00,
2013-08-23 08:00:00,61.0,58.0,-100.00,ENE,67,2.0,-999.0,89,-99.99,,,-99.99,47.560001,,2013-08-23 12:00:00,
2013-08-23 08:42:00,61.0,58.0,-100.00,ENE,67,2.0,-999.0,89,-99.99,,,-99.99,47.560001,,2013-08-23 12:42:00,
2013-08-23 08:52:00,61.0,58.0,-100.00,ENE,67,2.0,-999.0,89,-99.99,,,-99.99,47.560001,,2013-08-23 12:52:00,
2013-08-23 09:42:00,65.0,58.0,-100.00,ENE,67,4.0,-999.0,78,-99.99,,,-99.99,186.759995,,2013-08-23 13:42:00,
2013-08-23 09:53:00,65.0,58.0,-100.00,ENE,67,4.0,-999.0,78,-99.99,,,-99.99,186.759995,,2013-08-23 13:53:00,
2013-08-23 10:00:00,68.0,57.0,-100.00,ENE,67,6.0,-999.0,67,-99.99,,,-99.99,335.239990,,2013-08-23 14:00:00,
2013-08-23 10:42:00,68.0,57.0,-100.00,ENE,67,6.0,-999.0,67,-99.99,,,-99.99,335.239990,,2013-08-23 14:42:00,
2013-08-23 10:52:00,68.0,57.0,-100.00,ENE,67,6.0,-999.0,67,-99.99,,,-99.99,335.239990,,2013-08-23 14:52:00,
2013-08-23 11:00:00,72.0,55.0,-100.00,ENE,67,6.0,-999.0,56,-99.99,,,-99.99,491.839996,,2013-08-23 15:00:00,
2013-08-23 11:44:00,72.0,55.0,-100.00,ENE,67,6.0,-999.0,56,-99.99,,,-99.99,491.839996,,2013-08-23 15:44:00,
2013-08-23 11:54:00,72.0,55.0,-100.00,ENE,67,6.0,-999.0,56,-99.99,,,-99.99,491.839996,,2013-08-23 15:54:00,
2013-08-23 12:00:00,74.0,54.0,-100.00,ENE,67,5.0,-999.0,48,-99.99,,,-99.99,631.039978,,2013-08-23 16:00:00,
2013-08-23 12:42:00,74.0,54.0,-100.00,ENE,67,5.0,-999.0,48,-99.99,,,-99.99,631.039978,,2013-08-23 16:42:00,
2013-08-23 12:53:00,74.0,54.0,-100.00,ENE,67,5.0,-999.0,48,-99.99,,,-99.99,631.039978,,2013-08-23 16:53:00,
2013-08-23 13:00:00,77.0,52.0,-100.00,NE,45,5.0,-999.0,42,-99.99,,,-99.99,708.760010,,2013-08-23 17:00:00,
2013-08-23 13:43:00,77.0,52.0,-100.00,NE,45,5.0,-999.0,42,-99.99,,,-99.99,708.760010,,2013-08-23 17:43:00,
2013-08-23 13:54:00,77.0,52.0,-100.00,NE,45,5.0,-999.0,42,-99.99,,,-99.99,708.760010,,2013-08-23 17:54:00,
2013-08-23 14:00:00,78.0,50.0,-100.00,NE,45,6.0,-999.0,37,-99.99,,,-99.99,772.559998,,2013-08-23 18:00:00,
2013-08-23 14:42:00,78.0,50.0,-100.00,NE,45,6.0,-999.0,37,-99.99,,,-99.99,772.559998,,2013-08-23 18:42:00,
2013-08-23 14:52:00,78.0,50.0,-100.00,NE,45,6.0,-999.0,37,-99.99,,,-99.99,772.559998,,2013-08-23 18:52:00,
2013-08-23 15:00:00,78.0,48.0,-100.00,NE,45,5.0,-999.0,34,-99.99,,,-99.99,771.400024,,2013-08-23 19:00:00,
2013-08-23 15:42:00,78.0,48.0,-100.00,NE,45,5.0,-999.0,34,-99.99,,,-99.99,771.400024,,2013-08-23 19:42:00,
2013-08-23 15:52:00,78.0,48.0,-100.00,NE,45,5.0,-999.0,34,-99.99,,,-99.99,771.400024,,2013-08-23 19:52:00,
2013-08-23 16:00:00,79.0,48.0,-100.00,East,90,5.0,-999.0,34,-99.99,,,-99.99,714.559998,,2013-08-23 20:00:00,
2013-08-23 16:42:00,79.0,48.0,-100.00,East,90,5.0,-999.0,34,-99.99,,,-99.99,714.559998,,2013-08-23 20:42:00,
2013-08-23 16:52:00,79.0,48.0,-100.00,East,90,5.0,-999.0,34,-99.99,,,-99.99,714.559998,,2013-08-23 20:52:00,
2013-08-23 18:00:00,79.0,49.0,-100.00,NE,45,4.0,-999.0,34,-99.99,,,-99.99,467.480011,,2013-08-23 22:00:00,
2013-08-23 18:43:00,79.0,49.0,-100.00,NE,45,4.0,-999.0,34,-99.99,,,-99.99,467.480011,,2013-08-23 22:43:00,
2013-08-23 18:54:00,79.0,49.0,-100.00,NE,45,4.0,-999.0,34,-99.99,,,-99.99,467.480011,,2013-08-23 22:54:00,
2013-08-23 19:00:00,78.0,49.0,-100.00,NE,45,3.0,-999.0,36,-99.99,,,-99.99,293.480011,,2013-08-23 23:00:00,
2013-08-23 19:43:00,78.0,49.0,-100.00,NE,45,3.0,-999.0,36,-99.99,,,-99.99,293.480011,,2013-08-23 23:43:00,
2013-08-23 19:54:00,78.0,49.0,-100.00,NE,45,3.0,-999.0,36,-99.99,,,-99.99,293.480011,,2013-08-23 23:54:00,
2013-08-23 20:00:00,76.0,51.0,-100.00,NE,45,2.0,-999.0,42,-99.99,,,-99.99,132.240005,,2013-08-24 00:00:00,
2013-08-23 20:43:00,76.0,51.0,-100.00,NE,45,2.0,-999.0,42,-99.99,,,-99.99,132.240005,,2013-08-24 00:43:00,
2013-08-23 20:53:00,76.0,51.0,-100.00,NE,45,2.0,-999.0,42,-99.99,,,-99.99,132.240005,,2013-08-24 00:53:00,
2013-08-23 23:00:00,63.0,55.0,-100.00,NE,45,1.0,-999.0,73,-99.99,,,-99.99,0.000000,,2013-08-24 03:00:00,
2013-08-23 23:44:00,63.0,55.0,-100.00,NE,45,1.0,-999.0,73,-99.99,,,-99.99,0.000000,,2013-08-24 03:44:00,
2013-08-23 23:55:00,63.0,55.0,-100.00,NE,45,1.0,-999.0,73,-99.99,,,-99.99,0.000000,,2013-08-24 03:55:00,